Flag for Pakistan Weather past 2 weeks in Peshawar, Pakistan

Now
79 °F

Haze.


Feels Like: 81 °F
Forecast: 67 / 97 °F
Wind: No wind

Location: Peshawar Airport

Current Time: Sep 23, 2014 at 6:25:22 AM

Latest Report: Sep 23, 2014 at 6:00 AM


Visibility: 2 mi

Pressure: 29.71 "Hg

Humidity: 70%

Dew point: 68 °F

Location of PeshawarLocation

Historic Weather in Peshawar — Graph

°F

Peshawar temperature yesterday

Maximum temperature yesterday: 97 °F (at 3:00 PM)
Minimum temperature yesterday: 77 °F (at 6:00 AM)
Average temperature yesterday: 86 °F

Past Weeks' High & Low Weather Summary

 TemperatureHumidityPressure
High99 °F (Sep 8, 4:00 PM)79% (Sep 18, 5:00 AM)29.80 "Hg (Sep 18, 5:00 AM)
Low75 °F (Sep 8, 5:00 AM)35% (Sep 20, 4:00 PM)29.56 "Hg (Sep 9, 5:00 PM)
Average86 °F58%29.68 "Hg
* Reported Sep 8 5:00 AM — Sep 23 5:00 AM, Peshawar, Weather by CustomWeather, © 2014

Note: Actual official high and low records may vary slightly from our data, if they occured in-between our weather recording intervals... More about our weather records

Advertising

Peshawar weather history for previous 24 hours

 ConditionsComfort  
Time TempWeatherWind HumidityBarometerVisibility
5:00 AM
Sep 23
79 °FClear.No wind65%29.71 "Hg2 mi
4:00 AM79 °FClear.No wind74%29.71 "Hg2 mi
3:00 AM79 °FWarm.N/A74%29.68 "HgN/A
1:00 AM81 °FWarm.N/A70%29.71 "HgN/A
12:00 AM82 °FWarm.N/A62%29.71 "HgN/A
11:00 PM
Sep 22
82 °FWarm.N/A62%29.71 "HgN/A
10:00 PM84 °FWarm.N/A58%29.71 "HgN/A
9:00 PM86 °FWarm.N/A55%29.68 "HgN/A
8:00 PM86 °FWarm.N/A55%29.68 "HgN/A
7:00 PM91 °FHot.N/A49%29.65 "HgN/A
6:00 PM93 °FExtremely hot.N/A49%29.62 "HgN/A
5:00 PM95 °FExtremely hot.N/A47%29.62 "HgN/A
4:00 PM97 °FExtremely hot.N/A44%29.62 "HgN/A
3:00 PM97 °FExtremely hot.N/A44%29.68 "HgN/A
2:00 PM95 °FExtremely hot.N/A47%29.68 "HgN/A
1:00 PM93 °FExtremely hot.N/A49%29.71 "HgN/A
12:00 PM93 °FExtremely hot.N/A53%29.71 "HgN/A
11:00 AM90 °FHot.N/A55%29.74 "HgN/A
10:00 AM88 °FWarm.N/A59%29.77 "HgN/A
9:00 AM84 °FWarm.N/A66%29.77 "HgN/A
8:00 AM81 °FWarm.N/A74%29.74 "HgN/A
7:00 AM79 °FHaze.No wind74%29.71 "Hg2 mi
6:00 AM77 °FHaze.No wind74%29.71 "Hg2 mi
Weather by CustomWeather, © 2014

See weather overviewHow to use our weather pages